Location: Unspecified
(52.9390°N, 0.0000°E)
Time: 22:10:21
(UTC+00:00)

SL-16 DEB - Visible Passes

Search period start: 04 April 2026 00:00
Search period end: 14 April 2026 00:00
Orbit: 740 x 877 km, 71.1° (Epoch: 29 March)

Date Brightness Start Highest point End Pass type
(mag) Time Alt. Az. Time Alt. Az. Time Alt. Az.
4 Apr ? 01:13:56 78° N 01:13:56 78° N 01:19:29 10° NNE visible
4 Apr ? 02:55:01 18° WNW 02:57:49 25° NW 03:02:39 10° NNE visible
4 Apr ? 04:40:30 10° NW 04:43:21 14° N 04:46:11 10° NNE visible
4 Apr ? 23:08:08 15° ENE 23:08:08 15° ENE 23:09:52 10° ENE visible
5 Apr ? 00:49:13 71° NE 00:49:13 71° NE 00:54:27 10° NNE visible
5 Apr ? 02:30:19 22° WNW 02:32:36 29° NW 02:37:39 10° NNE visible
5 Apr ? 04:14:58 10° NW 04:18:00 14° NNW 04:21:02 10° NNE visible
5 Apr ? 22:43:24 12° ENE 22:43:24 12° ENE 22:44:18 10° ENE visible
6 Apr ? 00:24:29 59° ENE 00:24:29 59° ENE 00:29:23 10° NE visible
6 Apr ? 02:05:35 27° WNW 02:07:23 32° NW 02:12:39 10° NNE visible
6 Apr ? 03:49:24 10° NW 03:52:40 15° NNW 03:55:55 10° NNE visible
6 Apr ? 23:59:43 49° ENE 23:59:43 49° ENE 00:04:19 10° NE visible
7 Apr ? 01:40:49 33° WNW 01:42:13 37° NW 01:47:39 10° NNE visible
7 Apr ? 03:23:49 10° NW 03:27:20 16° NNW 03:30:50 10° NNE visible
7 Apr ? 23:34:56 41° ENE 23:34:56 41° ENE 23:39:12 10° NE visible
8 Apr ? 01:16:01 39° WNW 01:17:03 43° NW 01:22:39 10° NNE visible
8 Apr ? 02:58:15 10° WNW 03:02:01 17° NNW 03:05:47 10° NNE visible
8 Apr ? 23:10:06 34° ENE 23:10:06 34° ENE 23:14:04 10° NE visible
9 Apr ? 00:51:10 47° WNW 00:51:56 50° NW 00:57:38 10° NNE visible
9 Apr ? 02:32:41 10° WNW 02:36:43 19° NNW 02:40:44 10° NNE visible
9 Apr ? 04:19:56 10° NNW 04:22:32 13° N 04:25:08 10° NNE visible
9 Apr ? 22:45:13 29° ENE 22:45:13 29° ENE 22:48:54 10° NE visible
10 Apr ? 00:26:18 56° WNW 00:26:48 58° NW 00:32:37 10° NNE visible
10 Apr ? 02:07:22 11° WNW 02:11:25 20° NNW 02:15:43 10° NNE visible
10 Apr ? 03:54:35 10° NNW 03:57:11 13° N 03:59:46 10° NNE visible
10 Apr ? 22:20:18 25° E 22:20:18 25° E 22:23:40 10° NE visible
11 Apr ? 00:01:22 67° W 00:01:43 69° NW 00:07:36 10° NNE visible
11 Apr ? 01:42:27 13° WNW 01:46:09 23° NNW 01:50:42 10° NNE visible
11 Apr ? 03:29:09 10° NNW 03:31:49 13° N 03:34:28 10° NNE visible
11 Apr ? 21:55:19 21° E 21:55:19 21° E 21:58:23 10° NE visible
11 Apr ? 23:36:23 78° W 23:36:39 81° WNW 23:42:33 10° NNE visible
12 Apr ? 01:17:27 15° W 01:20:54 25° NW 01:25:41 10° NNE visible
12 Apr ? 03:03:38 10° NW 03:06:27 13° N 03:09:14 10° NNE visible
12 Apr ? 21:30:16 18° E 21:30:16 18° E 21:33:00 10° ENE visible
12 Apr ? 23:11:20 81° S 23:11:36 86° ESE 23:17:30 10° NNE visible
13 Apr ? 00:52:24 18° W 00:55:41 28° NW 01:00:41 10° NNE visible
13 Apr ? 02:38:06 10° NW 02:41:05 14° NNW 02:44:04 10° NNE visible
13 Apr ? 04:23:51 10° NNW 04:27:03 15° NNE 04:30:13 10° NE visible
13 Apr ? 21:05:09 15° E 21:05:09 15° E 21:07:27 10° ENE visible
13 Apr ? 22:46:12 70° SSE 22:46:35 73° ESE 22:52:26 10° NE visible
